Time,TemperatureF,DewpointF,PressureIn,WindDirection,WindDirectionDegrees,WindSpeedMPH,WindSpeedGustMPH,Humidity,HourlyPrecipIn,Conditions,Clouds,dailyrainin,SolarRadiationWatts/m^2,SoftwareType,DateUTC
2013-02-15 00:01:00,37.0,17.0,-100.00,NW,306,8.0,22.0,43,0.00,,,0.00,0.000000,,2013-02-15 08:01:00,
2013-02-15 00:11:00,37.0,17.0,-100.00,NW,306,8.0,22.0,43,0.00,,,0.00,0.000000,,2013-02-15 08:11:00,
2013-02-15 00:21:00,37.0,17.0,-100.00,NW,306,8.0,22.0,43,0.00,,,0.00,0.000000,,2013-02-15 08:21:00,
2013-02-15 00:31:00,37.0,17.0,-100.00,NW,306,8.0,22.0,43,0.00,,,0.00,0.000000,,2013-02-15 08:31:00,
2013-02-15 01:01:00,38.0,17.0,-100.00,NNE,22,6.0,19.0,42,0.00,,,0.00,0.000000,,2013-02-15 09:01:00,
2013-02-15 01:12:00,38.0,17.0,-100.00,NNE,22,6.0,19.0,42,0.00,,,0.00,0.000000,,2013-02-15 09:12:00,
2013-02-15 01:21:00,38.0,17.0,-100.00,NNE,22,6.0,19.0,42,0.00,,,0.00,0.000000,,2013-02-15 09:21:00,
2013-02-15 01:31:00,38.0,17.0,-100.00,NNE,22,6.0,19.0,42,0.00,,,0.00,0.000000,,2013-02-15 09:31:00,
2013-02-15 02:01:00,38.0,13.0,-100.00,NNE,29,6.0,19.0,36,0.00,,,0.00,0.000000,,2013-02-15 10:01:00,
2013-02-15 02:11:00,38.0,13.0,-100.00,NNE,29,6.0,19.0,36,0.00,,,0.00,0.000000,,2013-02-15 10:11:00,
2013-02-15 02:21:00,38.0,13.0,-100.00,NNE,29,6.0,19.0,36,0.00,,,0.00,0.000000,,2013-02-15 10:21:00,
2013-02-15 02:31:00,38.0,13.0,-100.00,NNE,29,6.0,19.0,36,0.00,,,0.00,0.000000,,2013-02-15 10:31:00,
2013-02-15 03:01:00,37.0,14.0,-100.00,SSW,207,5.0,20.0,39,0.00,,,0.00,0.000000,,2013-02-15 11:01:00,
2013-02-15 03:11:00,37.0,14.0,-100.00,SSW,207,5.0,20.0,39,0.00,,,0.00,0.000000,,2013-02-15 11:11:00,
2013-02-15 03:22:00,37.0,14.0,-100.00,SSW,207,5.0,20.0,39,0.00,,,0.00,0.000000,,2013-02-15 11:22:00,
2013-02-15 03:31:00,37.0,14.0,-100.00,SSW,207,5.0,20.0,39,0.00,,,0.00,0.000000,,2013-02-15 11:31:00,
2013-02-15 03:52:00,35.0,15.0,-100.00,ESE,113,4.0,18.0,43,0.00,,,0.00,0.000000,,2013-02-15 11:52:00,
2013-02-15 04:01:00,35.0,15.0,-100.00,ESE,113,4.0,18.0,43,0.00,,,0.00,0.000000,,2013-02-15 12:01:00,
2013-02-15 04:11:00,35.0,15.0,-100.00,ESE,113,4.0,18.0,43,0.00,,,0.00,0.000000,,2013-02-15 12:11:00,
2013-02-15 04:21:00,35.0,15.0,-100.00,ESE,113,4.0,18.0,43,0.00,,,0.00,0.000000,,2013-02-15 12:21:00,
2013-02-15 04:31:00,35.0,15.0,-100.00,ESE,113,4.0,18.0,43,0.00,,,0.00,0.000000,,2013-02-15 12:31:00,
2013-02-15 05:02:00,36.0,14.0,-100.00,NW,305,5.0,16.0,40,0.00,,,0.00,0.000000,,2013-02-15 13:02:00,
2013-02-15 05:11:00,36.0,14.0,-100.00,NW,305,5.0,16.0,40,0.00,,,0.00,0.000000,,2013-02-15 13:11:00,
2013-02-15 05:21:00,36.0,14.0,-100.00,NW,305,5.0,16.0,40,0.00,,,0.00,0.000000,,2013-02-15 13:21:00,
2013-02-15 05:31:00,36.0,14.0,-100.00,NW,305,5.0,16.0,40,0.00,,,0.00,0.000000,,2013-02-15 13:31:00,
2013-02-15 06:01:00,37.0,10.0,-100.00,NNE,27,6.0,18.0,32,0.00,,,0.00,0.000000,,2013-02-15 14:01:00,
2013-02-15 06:11:00,37.0,10.0,-100.00,NNE,27,6.0,18.0,32,0.00,,,0.00,0.000000,,2013-02-15 14:11:00,
2013-02-15 06:21:00,37.0,10.0,-100.00,NNE,27,6.0,18.0,32,0.00,,,0.00,0.000000,,2013-02-15 14:21:00,
2013-02-15 06:32:00,37.0,10.0,-100.00,NNE,27,6.0,18.0,32,0.00,,,0.00,0.000000,,2013-02-15 14:32:00,
2013-02-15 07:01:00,36.0,7.0,-100.00,SSE,151,6.0,17.0,29,0.00,,,0.00,0.000000,,2013-02-15 15:01:00,
2013-02-15 07:11:00,36.0,7.0,-100.00,SSE,151,6.0,17.0,29,0.00,,,0.00,0.000000,,2013-02-15 15:11:00,
2013-02-15 07:21:00,36.0,7.0,-100.00,SSE,151,6.0,17.0,29,0.00,,,0.00,0.000000,,2013-02-15 15:21:00,
2013-02-15 07:32:00,36.0,7.0,-100.00,SSE,151,6.0,17.0,29,0.00,,,0.00,0.000000,,2013-02-15 15:32:00,
2013-02-15 08:01:00,38.0,4.0,-100.00,ENE,58,8.0,19.0,23,0.00,,,0.00,27.000000,,2013-02-15 16:01:00,
2013-02-15 08:11:00,38.0,4.0,-100.00,ENE,58,8.0,19.0,23,0.00,,,0.00,27.000000,,2013-02-15 16:11:00,
2013-02-15 08:22:00,38.0,4.0,-100.00,ENE,58,8.0,19.0,23,0.00,,,0.00,27.000000,,2013-02-15 16:22:00,
2013-02-15 08:31:00,38.0,4.0,-100.00,ENE,58,8.0,19.0,23,0.00,,,0.00,27.000000,,2013-02-15 16:31:00,
2013-02-15 09:01:00,45.0,5.0,-100.00,ENE,73,8.0,25.0,19,0.00,,,0.00,357.000000,,2013-02-15 17:01:00,
2013-02-15 09:31:00,45.0,5.0,-100.00,ENE,73,8.0,25.0,19,0.00,,,0.00,357.000000,,2013-02-15 17:31:00,
2013-02-15 10:01:00,46.0,8.0,-100.00,NE,51,7.0,25.0,21,0.00,,,0.00,619.000000,,2013-02-15 18:01:00,
2013-02-15 10:11:00,46.0,8.0,-100.00,NE,51,7.0,25.0,21,0.00,,,0.00,619.000000,,2013-02-15 18:11:00,
2013-02-15 10:21:00,46.0,8.0,-100.00,NE,51,7.0,25.0,21,0.00,,,0.00,619.000000,,2013-02-15 18:21:00,
2013-02-15 10:31:00,46.0,8.0,-100.00,NE,51,7.0,25.0,21,0.00,,,0.00,619.000000,,2013-02-15 18:31:00,
2013-02-15 11:01:00,46.0,9.0,-100.00,NNE,23,6.0,28.0,22,0.00,,,0.00,819.000000,,2013-02-15 19:01:00,
2013-02-15 11:11:00,46.0,9.0,-100.00,NNE,23,6.0,28.0,22,0.00,,,0.00,819.000000,,2013-02-15 19:11:00,
2013-02-15 11:21:00,46.0,9.0,-100.00,NNE,23,6.0,28.0,22,0.00,,,0.00,819.000000,,2013-02-15 19:21:00,
2013-02-15 11:31:00,46.0,9.0,-100.00,NNE,23,6.0,28.0,22,0.00,,,0.00,819.000000,,2013-02-15 19:31:00,
2013-02-15 12:01:00,49.0,14.0,-100.00,ESE,114,6.0,19.0,24,0.00,,,0.00,944.000000,,2013-02-15 20:01:00,
2013-02-15 12:11:00,49.0,14.0,-100.00,ESE,114,6.0,19.0,24,0.00,,,0.00,944.000000,,2013-02-15 20:11:00,
2013-02-15 12:21:00,49.0,14.0,-100.00,ESE,114,6.0,19.0,24,0.00,,,0.00,944.000000,,2013-02-15 20:21:00,
2013-02-15 12:32:00,49.0,14.0,-100.00,ESE,114,6.0,19.0,24,0.00,,,0.00,944.000000,,2013-02-15 20:32:00,
2013-02-15 13:01:00,50.0,16.0,-100.00,NE,54,6.0,17.0,26,0.00,,,0.00,984.000000,,2013-02-15 21:01:00,
2013-02-15 13:11:00,50.0,16.0,-100.00,NE,54,6.0,17.0,26,0.00,,,0.00,984.000000,,2013-02-15 21:11:00,
2013-02-15 13:21:00,50.0,16.0,-100.00,NE,54,6.0,17.0,26,0.00,,,0.00,984.000000,,2013-02-15 21:21:00,
2013-02-15 13:31:00,50.0,16.0,-100.00,NE,54,6.0,17.0,26,0.00,,,0.00,984.000000,,2013-02-15 21:31:00,
2013-02-15 14:02:00,51.0,15.0,-100.00,SSW,208,6.0,18.0,23,0.00,,,0.00,936.000000,,2013-02-15 22:02:00,
2013-02-15 14:11:00,51.0,15.0,-100.00,SSW,208,6.0,18.0,23,0.00,,,0.00,936.000000,,2013-02-15 22:11:00,
2013-02-15 14:21:00,51.0,15.0,-100.00,SSW,208,6.0,18.0,23,0.00,,,0.00,936.000000,,2013-02-15 22:21:00,
2013-02-15 14:31:00,51.0,15.0,-100.00,SSW,208,6.0,18.0,23,0.00,,,0.00,936.000000,,2013-02-15 22:31:00,
2013-02-15 15:02:00,51.0,11.0,-100.00,NNW,340,5.0,16.0,20,0.00,,,0.00,791.000000,,2013-02-15 23:02:00,
2013-02-15 15:11:00,51.0,11.0,-100.00,NNW,340,5.0,16.0,20,0.00,,,0.00,791.000000,,2013-02-15 23:11:00,
2013-02-15 15:21:00,51.0,11.0,-100.00,NNW,340,5.0,16.0,20,0.00,,,0.00,791.000000,,2013-02-15 23:21:00,
2013-02-15 15:31:00,51.0,11.0,-100.00,NNW,340,5.0,16.0,20,0.00,,,0.00,791.000000,,2013-02-15 23:31:00,
2013-02-15 16:02:00,52.0,10.0,-100.00,WSW,258,5.0,15.0,18,0.00,,,0.00,623.000000,,2013-02-16 00:02:00,
2013-02-15 16:11:00,52.0,10.0,-100.00,WSW,258,5.0,15.0,18,0.00,,,0.00,623.000000,,2013-02-16 00:11:00,
2013-02-15 16:21:00,52.0,10.0,-100.00,WSW,258,5.0,15.0,18,0.00,,,0.00,623.000000,,2013-02-16 00:21:00,
2013-02-15 16:31:00,52.0,10.0,-100.00,WSW,258,5.0,15.0,18,0.00,,,0.00,623.000000,,2013-02-16 00:31:00,
2013-02-15 17:02:00,48.0,4.0,-100.00,WSW,242,4.0,16.0,16,0.00,,,0.00,250.000000,,2013-02-16 01:02:00,
2013-02-15 17:11:00,48.0,4.0,-100.00,WSW,242,4.0,16.0,16,0.00,,,0.00,250.000000,,2013-02-16 01:11:00,
2013-02-15 17:21:00,48.0,4.0,-100.00,WSW,242,4.0,16.0,16,0.00,,,0.00,250.000000,,2013-02-16 01:21:00,
2013-02-15 17:31:00,48.0,4.0,-100.00,WSW,242,4.0,16.0,16,0.00,,,0.00,250.000000,,2013-02-16 01:31:00,
2013-02-15 18:01:00,44.0,-9.0,-100.00,NNW,333,5.0,21.0,10,0.00,,,0.00,19.000000,,2013-02-16 02:01:00,
2013-02-15 19:01:00,40.0,3.0,-100.00,SE,141,3.0,12.0,21,0.00,,,0.00,0.000000,,2013-02-16 03:01:00,
2013-02-15 19:11:00,40.0,3.0,-100.00,SE,141,3.0,12.0,21,0.00,,,0.00,0.000000,,2013-02-16 03:11:00,
2013-02-15 19:21:00,40.0,3.0,-100.00,SE,141,3.0,12.0,21,0.00,,,0.00,0.000000,,2013-02-16 03:21:00,
2013-02-15 19:31:00,40.0,3.0,-100.00,SE,141,3.0,12.0,21,0.00,,,0.00,0.000000,,2013-02-16 03:31:00,
2013-02-15 20:01:00,38.0,1.0,-100.00,NE,40,1.0,12.0,20,0.00,,,-99.99,0.000000,,2013-02-16 04:01:00,
2013-02-15 20:11:00,38.0,1.0,-100.00,NE,40,1.0,12.0,20,0.00,,,-99.99,0.000000,,2013-02-16 04:11:00,
2013-02-15 20:21:00,38.0,1.0,-100.00,NE,40,1.0,12.0,20,0.00,,,-99.99,0.000000,,2013-02-16 04:21:00,
2013-02-15 20:31:00,38.0,1.0,-100.00,NE,40,1.0,12.0,20,0.00,,,-99.99,0.000000,,2013-02-16 04:31:00,
2013-02-15 21:01:00,39.0,-2.0,-100.00,WSW,250,1.0,10.0,17,0.00,,,-99.99,0.000000,,2013-02-16 05:01:00,
2013-02-15 21:11:00,39.0,-2.0,-100.00,WSW,250,1.0,10.0,17,0.00,,,-99.99,0.000000,,2013-02-16 05:11:00,
2013-02-15 21:21:00,39.0,-2.0,-100.00,WSW,250,1.0,10.0,17,0.00,,,-99.99,0.000000,,2013-02-16 05:21:00,
2013-02-15 21:31:00,39.0,-2.0,-100.00,WSW,250,1.0,10.0,17,0.00,,,-99.99,0.000000,,2013-02-16 05:31:00,
2013-02-15 22:01:00,38.0,-3.0,-100.00,NW,309,2.0,8.0,17,0.00,,,0.00,0.000000,,2013-02-16 06:01:00,
2013-02-15 22:11:00,38.0,-3.0,-100.00,NW,309,2.0,8.0,17,0.00,,,0.00,0.000000,,2013-02-16 06:11:00,
2013-02-15 22:21:00,38.0,-3.0,-100.00,NW,309,2.0,8.0,17,0.00,,,0.00,0.000000,,2013-02-16 06:21:00,
2013-02-15 22:32:00,38.0,-3.0,-100.00,NW,309,2.0,8.0,17,0.00,,,0.00,0.000000,,2013-02-16 06:32:00,
2013-02-15 23:02:00,41.0,-11.0,-100.00,NNE,33,1.0,16.0,10,0.00,,,0.00,0.000000,,2013-02-16 07:02:00,
2013-02-15 23:11:00,41.0,-11.0,-100.00,NNE,33,1.0,16.0,10,0.00,,,0.00,0.000000,,2013-02-16 07:11:00,
2013-02-15 23:21:00,41.0,-11.0,-100.00,NNE,33,1.0,16.0,10,0.00,,,0.00,0.000000,,2013-02-16 07:21:00,